Location: Muenchen
(48.1800°N, 11.5800°E)
Time: 18:18:22
(UTC+02:00)

ISS - Visible Passes

Search period start: 18 April 2014 00:00
Search period end: 28 April 2014 00:00
Orbit: 414 x 419 km, 51.6° (Epoch: 18 April)

Date Brightness Start Highest point End Pass type
(mag) Time Alt. Az. Time Alt. Az. Time Alt. Az.
18 Apr -3.2 21:16:00 10° WNW 21:19:22 75° NNE 21:21:39 19° ESE visible
18 Apr -1.1 22:53:03 10° W 22:54:33 20° WSW 22:54:33 20° WSW visible
19 Apr -2.5 22:04:31 10° WNW 22:07:40 38° SSW 22:08:06 36° SSW visible
20 Apr -3.0 21:16:02 10° WNW 21:19:22 58° SSW 21:21:38 18° SE visible
20 Apr -0.4 22:54:25 10° WSW 22:54:32 10° WSW 22:54:32 10° WSW visible
21 Apr -1.2 22:04:58 10° W 22:07:19 18° SW 22:08:05 17° SSW visible
22 Apr -1.7 21:16:07 10° W 21:19:00 27° SW 21:21:38 12° SSE visible
24 Apr -0.6 21:16:55 10° WSW 21:18:18 12° SW 21:19:41 10° SSW visible
